sat.trackr.live / text

‹ back to catalog

2024-105C

NORAD 59919 · 2024-105C

PAYLOAD ACTIVE UNKNOWN

§ Identity

Operator
Country
PRC
Launch date
2024-05-30
Launch site
JSC
Launch vehicle
Mass (kg)
RCS (m²)

External: N2YO · Heavens-Above · Gunter

§ Orbital elements

Epoch: 2026-09-22T21:24:21.145824Z

Period
95.29 min
Inclination
97.5793°
Eccentricity
0.0030866
Mean motion
15.11230732 rev/d
Perigee alt
511.1 km
Apogee alt
553.8 km
Semi-major
6,910.6 km
B*
9.5043e-5
RAAN
281.7301°
Arg perigee
207.4695°
Mean anomaly
152.4905°
Rev number
12,790

§ Raw data

2024-105C1 59919U 24105C   26265.89191141  .00001548  00000+0  95043-4 0  99922 59919  97.5793 281.7301 0030866 207.4695 152.4905 15.11230732127903

JSON: /api/v1/satellites/59919 · /tle

For live sub-satellite position, see the globe view (requires WebGL).

§ Visibility from observer

Set your observer location to see the next 7 days of passes ≥ 10°. The values pass through the URL so the page stays shareable.

No JS? Fill the form by hand. The geolocation button needs JavaScript.